Station TPLM2 - Thomas Point, MD Image indicating link to RSS feed of recent meteorological observations for station TPLM2


Conditions at TPLM2 as of
(4:00 am EDT)
0800 GMT on 06/23/2024:
     

Click on the graph icon in the table below to see a time series plot of the last five days of that observation.

5-day plot - Wind Direction Wind Direction (WDIR):SSE ( 160 deg true )
5-day plot - Wind Speed Wind Speed (WSPD): 13 kts
5-day plot - Wind Gust Wind Gust (GST): 13 kts
5-day plot - Atmospheric Pressure Atmospheric Pressure (PRES):29.89 in
5-day plot - Pressure Tendency Pressure Tendency (PTDY):-0.03 in ( Falling )
5-day plot - Air Temperature Air Temperature (ATMP): 81.3 °F
5-day plot - Wind Speed at 10 Meters Wind Speed at 10 meters (WSPD10M): 12 kts
5-day plot - Wind Speed at 20 Meters Wind Speed at 20 meters (WSPD20M): 14 kts
5-day plot -  Wind Speed, Wind Gust and Atmospheric Pressure Combined plot of Wind Speed, Gust, and Air Pressure
Continuous Winds
TIME
(EDT)
5-day plot - Wind Direction WDIR 5-day plot - Wind Speed WSPD
4:00 amSSE ( 163 deg ) 13 kts
3:50 amSSE ( 160 deg ) 13 kts
3:40 amSSE ( 161 deg ) 13 kts
3:30 amSSE ( 162 deg ) 13 kts
3:20 amSSE ( 157 deg ) 12 kts
3:10 amSSE ( 159 deg ) 13 kts
 
Peak gust during the measurement hour
TIME
(EDT)
5-day plot - Gust Direction GDR 5-day plot - Gust Speed GST
3:53 amSSE ( 160 deg ) 15 kts
Previous observations
TIME
(EDT)
5-day plot - Wind Direction
WDIR
 
5-day plot - Wind Speed
WSPD
kts
5-day plot - Wind Gust
GST
kts
5-day plot - Wave Height
WVHT
ft
5-day plot - Dominant Wave Period
DPD
sec
5-day plot - Average Wave Period
APD
sec
5-day plot - Mean Wave Direction
MWD
 
5-day plot - Atmospheric Pressure
PRES
in
5-day plot - Pressure Tendency
PTDY
in
5-day plot - Air Temperature
ATMP
°F
5-day plot - Water Temperature
WTMP
°F
5-day plot - Dew Point
DEWP
°F
5-day plot - Salinity
SAL
psu
5-day plot - Visibility
VIS
nmi
5-day plot - Tide (above MLLW)
TIDE
ft
2024-06-23 03:00 amSSE 13 14----29.89-0.03 80.6-----
2024-06-23 02:00 amSSE 12 13----29.91-0.03 79.9-----
2024-06-23 01:00 amSSE 14 15----29.92-0.02 79.7-----
2024-06-23 12:00 amSSE 17 18----29.92+0.00 79.9-----
2024-06-22 11:00 pm SE 17 18----29.94+0.01 80.4-----
2024-06-22 10:00 pm SE 19 21----29.94+0.01 81.3-----
2024-06-22 09:00 pm SE 19 21----29.93+0.00 82.9-----
2024-06-22 08:00 pm SE 17 19----29.93-0.01 83.7-----
2024-06-22 07:00 pm SE 17 19----29.92-0.05 83.8-----
2024-06-22 06:00 pm SE 18 19----29.93-0.07 83.8-----
2024-06-22 05:00 pm SE 18 19----29.94-0.08 84.0-----
2024-06-22 04:00 pm SE 15 16----29.97-0.08 84.2-----
2024-06-22 03:00 pm SE 13 14----29.99-0.07 83.5-----
2024-06-22 02:00 pm SE 9 9----30.02-0.05 82.4-----
2024-06-22 01:00 pm SE 8 9----30.05-0.04 81.0-----
2024-06-22 12:00 pm SE 9 10----30.06-0.04 80.4-----
2024-06-22 11:00 am SE 9 10----30.07-0.02 78.6-----
2024-06-22 10:00 amSSE 8 8----30.09-0.02 77.7-----
2024-06-22 09:00 am S 6 7----30.10+0.00 78.4-----
2024-06-22 08:00 am S 8 9----30.10+0.00 77.4-----
2024-06-22 07:00 am S 7 8----30.10+0.00 77.5-----
2024-06-22 06:00 am S 9 10----30.10+0.00 76.8-----
2024-06-22 05:00 amSSE 11 12----30.09-0.03 76.5-----
2024-06-22 04:00 amSSE 14 15----30.10-0.03 76.8-----